Location: Aldenham
(51.6667°N, 0.3500°W)
Time: 21:21:13
(UTC+00:00)

Vanguard 2 Rocket - Pass Details

Date: 24 February 2026
Orbit: 553 x 3286 km, 32.9° (Epoch: 8 March)

Event Time Altitude Azimuth Distance (km) Brightness Sun altitude
Rises 09:10:11 0° 205° (SSW) 6,809 11.6 17.2°
Reaches altitude 10° 09:15:50 10° 193° (SSW) 6,040 11.6 17.9°
Maximum altitude 09:29:47 25° 148° (SSE) 5,015 12.9 19.4°
Drops below altitude 10° 09:43:04 10° 102° (ESE) 5,779 12.0 20.8°
Sets 09:48:13 0° 91° (E) 6,475 11.8 21.3°
